This demonstration page uses our WeatherBlox Daily Observations layout. Learn more.

Left ArrowRight Arrow

39.95233, -75.16379

Hourly Observations for August 12, 2022

Temp ( °F °C ) Dew Point ( °F °C ) Humidity (%) Winds ( mph kmh ) Pressure ( in mb ) Visibility ( mi km ) Precip ( " mm )
12:54 am 00:54 Cloudy 81 27.2 55 12.8 41 41 N 10 17 29.92 1013 10 16 0.00 0.00
1:54 am 01:54 Cloudy 79 26.1 54 12.2 42 42 N 14 22 29.93 1014 10 16 0.00 0.00
2:54 am 02:54 Cloudy 78 25.6 55 12.8 45 45 N 16 26 29.93 1014 10 16 0.00 0.00
3:54 am 03:54 Mostly Cloudy 75 23.9 59 15 57 57 N 13 20 29.94 1014 10 16 0.00 0.00
4:54 am 04:54 Mostly Cloudy 75 23.9 58 14.4 55 55 N 13 20 29.94 1014 10 16 0.00 0.00
5:54 am 05:54 Mostly Cloudy 74 23.3 58 14.4 57 57 N 14 22 29.96 1014 10 16 0.00 0.00
6:54 am 06:54 Mostly Cloudy 73 22.8 58 14.4 59 59 N 10 17 29.98 1015 10 16 0.00 0.00
7:54 am 07:54 Mostly Cloudy 73 22.8 59 15 61 61 N 9 15 29.99 1016 10 16 0.00 0.00
8:54 am 08:54 Partly Cloudy 75 23.9 60 15.6 60 60 N 10 17 30.01 1016 10 16 0.00 0.00
9:54 am 09:54 Partly Cloudy 79 26.1 60 15.6 52 52 N 13 20 30.01 1016 10 16 0.00 0.00
10:54 am 10:54 Partly Cloudy 82 27.8 56 13.3 41 41 NNE 12 19 30.01 1016 10 16 0.00 0.00
11:54 am 11:54 Partly Cloudy 81 27.2 55 12.8 41 41 NE 5 7 30.01 1016 10 16 0.00 0.00
12:54 pm 12:54 Partly Cloudy 84 28.9 55 12.8 37 37 NW 8 13 30.00 1016 10 16 0.00 0.00
1:54 pm 13:54 Partly Cloudy 85 29.4 52 11.1 32 32 N 10 17 29.99 1016 10 16 0.00 0.00
2:54 pm 14:54 Partly Cloudy 86 30 51 10.6 30 30 VRB 7 11 29.98 1015 10 16 0.00 0.00
3:54 pm 15:54 Partly Cloudy 86 30 52 11.1 31 31 N 10 17 29.97 1015 10 16 0.00 0.00
4:54 pm 16:54 Partly Cloudy 86 30 51 10.6 30 30 NW 12 19 29.98 1015 10 16 0.00 0.00
5:54 pm 17:54 Partly Cloudy 86 30 48 8.9 27 27 N 13 20 29.98 1015 10 16 0.00 0.00
6:54 pm 18:54 Mostly Sunny 85 29.4 48 8.9 28 28 NNW 14 22 29.98 1015 10 16 0.00 0.00
7:54 pm 19:54 Partly Cloudy 83 28.3 46 7.8 28 28 NNW 12 19 30.00 1016 10 16 0.00 0.00
8:54 pm 20:54 Mostly Clear 80 26.7 47 8.3 31 31 NNW 9 15 30.02 1017 10 16 0.00 0.00
9:54 pm 21:54 Mostly Clear 77 25 48 8.9 36 36 N 10 17 30.04 1017 10 16 0.00 0.00
10:54 pm 22:54 Mostly Clear 77 25 46 7.8 33 33 N 12 19 30.04 1017 10 16 0.00 0.00
11:54 pm 23:54 Mostly Clear 74 23.3 47 8.3 38 38 NNE 9 15 30.06 1018 10 16 0.00 0.00

Powered by AerisWeather